Location: Seasalter
(51.3333°N, 1.0167°E)
Time: 04:27:58
(UTC+00:00)

ATLAS 5 CENTAUR R/B - Pass Details

Date: 30 April 2024
Orbit: 421 x 1170 km, 63.3° (Epoch: 18 May)

Event Time Altitude Azimuth Distance (km) Brightness Sun altitude
Rises 23:41:52 0° 314° (NW) 2,889 5.7 -23.5°
Reaches altitude 10° 23:43:55 10° 313° (NW) 2,081 4.8 -23.5°
Maximum altitude 23:48:41 80° 228° (SW) 786 1.9 -23.5°
Enters shadow 23:49:42 59° 156° (SSE) 911 2.0 -23.5°
